OBJECT C, 65546

Orbit data source: Space-Track

You're viewing an Uncataloged Satellite

Recently launched and/or uncataloged satellites may have evolving metadata. Metadata may include but not limited to: Owner, Maufacturer, Bus, Motor, and Mission.

OBJECT C, 65546 is a satellite owned by CAST (CN) in LEO that was launched on Sat, 06 Sep 2025 UTC via a CHANG ZHENG 6A launch vehicle from the Taiyaun Space Center, China (TSC). Unknown objects in Earth's orbit typically refer to objects detected orbiting the Earth but have not yet been identified or cataloged. These objects could be anything from previously untracked satellites, spent rocket stages, debris from satellite collisions, or even natural meteoroids temporarily captured by Earth's gravity.

Loading next visibility...
Identifier
65546, 2025-199C
Orbit
LEO
Country
Flag of CNCN / PRC
Related business
None
Manufacturer
DFH
Mission
Operational spacecraft
Bus & Motor
YG40, Unknown motor
Mass
~500 kg wet, ~500 kg dry
Launch date (UTC)
2025-09-06 (2 weeks ago)
Launch vehicle
CHANG ZHENG 6A
Launch site
Taiyaun Space Center, China (TSC)
Object type
Unknown
Shape & HBR
Unknown
Radar Cross Section
Large (>1 m²)

Expand to show TLE details & history
Last TLE update: 18 hours ago

TLE from 18 hours ago
0 OBJECT C
1 65546U 25199C   25260.14724710  .00000327  00000-0  15512-3 0  9992
2 65546  85.9976 166.5933 0017238 289.4978  70.4345 14.16375968  1490
Epoch: 2025-09-17T03:32Z
TLE epoch observation values (Epoch: 2025-09-17T03:32:02.149Z)
Latitude
-0.00002°
Longitude
117.25697°
Altitude
836.508 km
Speed
7.437 km/s
True Right ascension
11h 06m 22s
True Declination
0° 00' 00"
Sunlit
Object was in daylight at epoch
Visualization orbit readout
Latitude
Unknown
Longitude
Unknown
Altitude
Unknown
Speed
Unknown
Apparent Right ascension
Unknown
Apparent Declination
Unknown
Sunlit
N/A
Visualization observer readout
Local Sidereal Time
14:11:02
Azimuth
Unknown
Elevation
Unknown
Doppler factor
Unknown
Orbital elements
Apogee altitude
847.067 km
Perigee altitude
822.2 km
Semi-major axis
7,212.77 km
Eccentricity
0.00172
Inclination
85.9976°
RAAN
166.5933°
Arg. of periapsis
289.4978°
True anomaly
70.62076°
Mean anomaly
70.4345°
Eccentric anomaly
70.52762°
Mean motion
3.54315 °/min
Orbital period
101.6 mins
BSTAR
0.00015512
Loading maneuver chart data...
Computing Atmospheric mass density...
Loading historical data...
Loading historical data...
Loading historical data...
Loading historical data...
Loading historical data...
Loading historical data...
Loading historical data...
Other satellites on launch #199 in the year 2025 (2025-09-06 UTC)

Documentation

Showing up to 5 results
|